When you browse on this site, cookies collect data to enhance your experience and personalize the content and advertising you see.
Visit our Privacy Policy to learn more. By continuing to use the site, you agree to this use of cookies and data.
EN

Hourly Weather Zenica

Today, 8 July, Wednesday

Time Temperature Precipitation Wind Pressure Humidity
00:00 +8°C° 0 mm 1 mps 677 mmHg 95%
01:00 +8°C° 0 mm 1 mps 678 mmHg 95%
02:00 +8°C° 0 mm 1 mps 677 mmHg 95%
03:00 +7°C° 0 mm 1 mps 677 mmHg 95%
04:00 +7°C° 0 mm 1 mps 677 mmHg 95%
05:00 +9°C° 0 mm 1 mps 678 mmHg 90%
06:00 +11°C° 0 mm 1 mps 678 mmHg 86%
07:00 +13°C° 0 mm 1 mps 679 mmHg 81%
08:00 +15°C° 0 mm 1 mps 679 mmHg 70%
09:00 +18°C° 0 mm 1 mps 680 mmHg 58%
10:00 +20°C° 0 mm 1 mps 680 mmHg 47%
11:00 +21°C° 0 mm 1 mps 680 mmHg 45%
12:00 +22°C° 0 mm 1 mps 680 mmHg 43%
13:00 +23°C° 0 mm 1 mps 680 mmHg 41%
14:00 +23°C° 0 mm 1 mps 680 mmHg 43%
15:00 +23°C° 0 mm 1 mps 680 mmHg 45%
16:00 +23°C° 0 mm 1 mps 680 mmHg 47%
17:00 +21°C° 0 mm 1 mps 679 mmHg 58%
18:00 +19°C° 0 mm 1 mps 679 mmHg 68%
19:00 +16°C° 0 mm 1 mps 678 mmHg 79%
20:00 +14°C° 0 mm 0 mps 678 mmHg 81%
21:00 +12°C° 0 mm 0 mps 678 mmHg 84%
22:00 +11°C° 0 mm 0 mps 678 mmHg 86%
23:00 +11°C° 0 mm 0 mps 678 mmHg 86%

Tomorrow, 9 July, Thursday

Time Temperature Precipitation Wind Pressure Humidity
00:00 +11°C° 0 mm 0 mps 678 mmHg 85%
01:00 +10°C° 0 mm 0 mps 678 mmHg 85%
02:00 +10°C° 0 mm 0 mps 678 mmHg 83%
03:00 +10°C° 0 mm 0 mps 678 mmHg 82%
04:00 +10°C° 0 mm 0 mps 678 mmHg 80%
05:00 +12°C° 0 mm 0 mps 679 mmHg 76%
06:00 +15°C° 0 mm 1 mps 679 mmHg 73%
07:00 +18°C° 0 mm 1 mps 680 mmHg 69%
08:00 +20°C° 0 mm 1 mps 681 mmHg 61%
09:00 +22°C° 0 mm 1 mps 681 mmHg 53%
10:00 +24°C° 0 mm 1 mps 682 mmHg 45%
11:00 +25°C° 0 mm 1 mps 682 mmHg 44%
12:00 +26°C° 0 mm 1 mps 682 mmHg 42%
13:00 +27°C° 0 mm 1 mps 682 mmHg 40%
14:00 +27°C° 0 mm 1 mps 681 mmHg 43%
15:00 +27°C° 0 mm 1 mps 681 mmHg 45%
16:00 +26°C° 0 mm 1 mps 681 mmHg 47%
17:00 +24°C° 0 mm 1 mps 680 mmHg 58%
18:00 +22°C° 0 mm 1 mps 680 mmHg 68%
19:00 +18°C° 0 mm 0 mps 679 mmHg 79%
20:00 +16°C° 0 mm 0 mps 679 mmHg 81%
21:00 +15°C° 0 mm 0 mps 679 mmHg 83%
22:00 +14°C° 0 mm 0 mps 679 mmHg 84%
23:00 +14°C° 0 mm 0 mps 679 mmHg 84%

Day after tomorrow, 10 July, Friday

Time Temperature Precipitation Wind Pressure Humidity
00:00 +13°C° 0 mm 0 mps 679 mmHg 84%
01:00 +13°C° 0 mm 0 mps 678 mmHg 84%
02:00 +13°C° 0 mm 0 mps 678 mmHg 83%
03:00 +13°C° 0 mm 0 mps 678 mmHg 82%
04:00 +13°C° 0 mm 0 mps 678 mmHg 81%
05:00 +15°C° 0 mm 0 mps 678 mmHg 77%
06:00 +17°C° 0 mm 0 mps 679 mmHg 73%
07:00 +19°C° 0 mm 0 mps 679 mmHg 69%
08:00 +21°C° 0 mm 0 mps 679 mmHg 62%
09:00 +23°C° 0 mm 0 mps 680 mmHg 56%
10:00 +25°C° 0 mm 0 mps 680 mmHg 49%
11:00 +27°C° 0 mm 1 mps 680 mmHg 47%
12:00 +28°C° 0 mm 1 mps 680 mmHg 44%
13:00 +29°C° 0 mm 1 mps 680 mmHg 41%
14:00 +29°C° 0 mm 1 mps 680 mmHg 44%
15:00 +28°C° 0 mm 1 mps 679 mmHg 47%
16:00 +28°C° 0 mm 1 mps 679 mmHg 50%
17:00 +26°C° 0 mm 1 mps 678 mmHg 59%
18:00 +24°C° 0 mm 1 mps 678 mmHg 68%
19:00 +22°C° 0 mm 1 mps 677 mmHg 78%
20:00 +21°C° 0 mm 1 mps 677 mmHg 79%
21:00 +19°C° 0 mm 1 mps 677 mmHg 81%
22:00 +18°C° 0 mm 1 mps 677 mmHg 82%
23:00 +18°C° 0 mm 1 mps 677 mmHg 81%

11 July, Saturday

Time Temperature Precipitation Wind Pressure Humidity
00:00 +16°C° 0 mm 1 mps 677 mmHg 80%
01:00 +16°C° 0 mm 1 mps 676 mmHg 79%
02:00 +16°C° 0 mm 1 mps 676 mmHg 78%
03:00 +15°C° 0 mm 1 mps 676 mmHg 76%
04:00 +15°C° 0 mm 1 mps 676 mmHg 75%
05:00 +18°C° 0 mm 1 mps 676 mmHg 71%
06:00 +18°C° 0 mm 0 mps 677 mmHg 68%
07:00 +20°C° 0 mm 0 mps 678 mmHg 64%
08:00 +22°C° 0 mm 0 mps 678 mmHg 58%
09:00 +24°C° 0 mm 0 mps 679 mmHg 52%
10:00 +27°C° 0 mm 1 mps 679 mmHg 46%
11:00 +28°C° 0 mm 1 mps 679 mmHg 44%
12:00 +29°C° 0 mm 1 mps 679 mmHg 43%
13:00 +29°C° 0 mm 1 mps 679 mmHg 41%
14:00 +29°C° 0.1 mm 1 mps 679 mmHg 45%
15:00 +28°C° 0.1 mm 1 mps 679 mmHg 49%
16:00 +27°C° 0.1 mm 2 mps 679 mmHg 53%
17:00 +25°C° 0.8 mm 2 mps 679 mmHg 65%
18:00 +21°C° 0.8 mm 3 mps 679 mmHg 78%
19:00 +18°C° 0.8 mm 3 mps 679 mmHg 90%
20:00 +16°C° 0.6 mm 3 mps 679 mmHg 93%
21:00 +14°C° 0.6 mm 3 mps 680 mmHg 95%
22:00 +12°C° 0.6 mm 3 mps 680 mmHg 97%
23:00 +12°C° 0 mm 2 mps 680 mmHg 97%

12 July, Sunday

Time Temperature Precipitation Wind Pressure Humidity
00:00 +12°C° 0 mm 2 mps 680 mmHg 97%
01:00 +11°C° 0 mm 1 mps 680 mmHg 96%
02:00 +11°C° 0 mm 1 mps 680 mmHg 96%
03:00 +10°C° 0 mm 1 mps 680 mmHg 96%
04:00 +10°C° 0 mm 1 mps 679 mmHg 96%
05:00 +11°C° 0 mm 1 mps 680 mmHg 93%
06:00 +11°C° 0 mm 1 mps 680 mmHg 91%
07:00 +12°C° 0 mm 2 mps 681 mmHg 88%
08:00 +14°C° 0 mm 2 mps 681 mmHg 77%
09:00 +15°C° 0 mm 2 mps 682 mmHg 67%
10:00 +17°C° 0 mm 2 mps 682 mmHg 56%
11:00 +18°C° 0 mm 2 mps 682 mmHg 54%
12:00 +19°C° 0 mm 3 mps 682 mmHg 53%
13:00 +20°C° 0 mm 3 mps 682 mmHg 52%
14:00 +19°C° 0 mm 3 mps 682 mmHg 54%
15:00 +19°C° 0 mm 3 mps 682 mmHg 55%
16:00 +19°C° 0 mm 3 mps 682 mmHg 57%
17:00 +17°C° 0 mm 2 mps 681 mmHg 64%
18:00 +16°C° 0 mm 2 mps 681 mmHg 71%
19:00 +14°C° 0 mm 1 mps 681 mmHg 78%
20:00 +13°C° 0 mm 1 mps 681 mmHg 80%
21:00 +11°C° 0 mm 1 mps 681 mmHg 83%
22:00 +10°C° 0 mm 1 mps 681 mmHg 85%
23:00 +9°C° 0 mm 1 mps 680 mmHg 86%

13 July, Monday

Time Temperature Precipitation Wind Pressure Humidity
00:00 +9°C° 0 mm 1 mps 680 mmHg 87%
01:00 +8°C° 0 mm 1 mps 680 mmHg 87%
02:00 +8°C° 0 mm 1 mps 680 mmHg 89%
03:00 +8°C° 0 mm 1 mps 680 mmHg 91%
04:00 +7°C° 0 mm 1 mps 679 mmHg 92%
05:00 +9°C° 0 mm 1 mps 680 mmHg 86%
06:00 +11°C° 0 mm 1 mps 680 mmHg 80%
07:00 +13°C° 0 mm 1 mps 681 mmHg 73%
08:00 +15°C° 0 mm 2 mps 681 mmHg 65%
09:00 +17°C° 0 mm 2 mps 682 mmHg 57%
10:00 +18°C° 0 mm 2 mps 682 mmHg 49%
11:00 +19°C° 0 mm 2 mps 682 mmHg 49%
12:00 +20°C° 0 mm 3 mps 682 mmHg 49%
13:00 +21°C° 0 mm 3 mps 682 mmHg 49%
14:00 +20°C° 0 mm 3 mps 681 mmHg 52%
15:00 +20°C° 0 mm 3 mps 681 mmHg 54%
16:00 +20°C° 0 mm 2 mps 681 mmHg 57%
17:00 +18°C° 0 mm 2 mps 680 mmHg 66%
18:00 +16°C° 0 mm 2 mps 680 mmHg 76%
19:00 +15°C° 0 mm 1 mps 679 mmHg 85%
20:00 +13°C° 0 mm 1 mps 679 mmHg 88%
21:00 +12°C° 0 mm 1 mps 679 mmHg 91%
22:00 +10°C° 0 mm 0 mps 679 mmHg 94%
23:00 +9°C° 0 mm 0 mps 678 mmHg 94%
Show more